When you browse on this site, cookies collect data to enhance your experience and personalize the content and advertising you see.
Visit our Privacy Policy to learn more. By continuing to use the site, you agree to this use of cookies and data.
  • In Romania
  • List of Countries
  • For 7 days
  • Water Temperature
  • Weather Map
  • Weather Widgets
  • user-avatar
    Login

    Hourly Weather Arad

    Today, 27 May, Wednesday

    Time Temperature Precipitation Wind Pressure Humidity
    00:00 +8°C° 0 mm 4 mps 758 mmHg 90%
    01:00 +9°C° 0 mm 3 mps 758 mmHg 94%
    02:00 +9°C° 0 mm 3 mps 758 mmHg 95%
    03:00 +8°C° 0 mm 3 mps 758 mmHg 95%
    04:00 +8°C° 0 mm 3 mps 758 mmHg 96%
    05:00 +10°C° 0 mm 4 mps 758 mmHg 91%
    06:00 +11°C° 0 mm 4 mps 758 mmHg 87%
    07:00 +12°C° 0 mm 4 mps 758 mmHg 83%
    08:00 +14°C° 0 mm 5 mps 758 mmHg 78%
    09:00 +15°C° 0 mm 5 mps 759 mmHg 73%
    10:00 +17°C° 0 mm 5 mps 759 mmHg 67%
    11:00 +17°C° 0.3 mm 5 mps 758 mmHg 67%
    12:00 +19°C° 0.3 mm 6 mps 758 mmHg 67%
    13:00 +19°C° 0.3 mm 6 mps 758 mmHg 66%
    14:00 +19°C° 0.2 mm 6 mps 757 mmHg 67%
    15:00 +19°C° 0.2 mm 6 mps 757 mmHg 68%
    16:00 +19°C° 0.2 mm 6 mps 757 mmHg 68%
    17:00 +17°C° 0.5 mm 5 mps 757 mmHg 74%
    18:00 +15°C° 0.5 mm 4 mps 757 mmHg 79%
    19:00 +14°C° 0.5 mm 4 mps 757 mmHg 84%
    20:00 +13°C° 0 mm 4 mps 757 mmHg 87%
    21:00 +13°C° 0 mm 3 mps 757 mmHg 89%
    22:00 +12°C° 0 mm 3 mps 757 mmHg 92%
    23:00 +11°C° 0 mm 3 mps 757 mmHg 92%

    Tomorrow, 28 May, Thursday

    Time Temperature Precipitation Wind Pressure Humidity
    00:00 +11°C° 0 mm 3 mps 756 mmHg 93%
    01:00 +10°C° 0 mm 3 mps 756 mmHg 93%
    02:00 +10°C° 0 mm 3 mps 756 mmHg 93%
    03:00 +10°C° 0 mm 3 mps 756 mmHg 93%
    04:00 +10°C° 0 mm 3 mps 756 mmHg 93%
    05:00 +11°C° 0 mm 3 mps 756 mmHg 90%
    06:00 +12°C° 0 mm 4 mps 755 mmHg 86%
    07:00 +13°C° 0 mm 4 mps 755 mmHg 83%
    08:00 +15°C° 0.2 mm 4 mps 755 mmHg 76%
    09:00 +17°C° 0.2 mm 4 mps 755 mmHg 70%
    10:00 +19°C° 0.2 mm 4 mps 755 mmHg 64%
    11:00 +19°C° 0.6 mm 5 mps 754 mmHg 64%
    12:00 +20°C° 0.6 mm 5 mps 754 mmHg 63%
    13:00 +20°C° 0.6 mm 6 mps 753 mmHg 63%
    14:00 +20°C° 0.4 mm 6 mps 753 mmHg 63%
    15:00 +20°C° 0.4 mm 5 mps 753 mmHg 63%
    16:00 +19°C° 0.4 mm 5 mps 752 mmHg 63%
    17:00 +18°C° 0.1 mm 4 mps 752 mmHg 69%
    18:00 +17°C° 0.1 mm 4 mps 752 mmHg 74%
    19:00 +14°C° 0.1 mm 3 mps 752 mmHg 80%
    20:00 +13°C° 0 mm 3 mps 752 mmHg 82%
    21:00 +12°C° 0 mm 3 mps 752 mmHg 83%
    22:00 +11°C° 0 mm 3 mps 752 mmHg 85%
    23:00 +11°C° 0 mm 3 mps 752 mmHg 87%

    Day after tomorrow, 29 May, Friday

    Time Temperature Precipitation Wind Pressure Humidity
    00:00 +10°C° 0 mm 3 mps 752 mmHg 89%
    01:00 +10°C° 0 mm 3 mps 752 mmHg 92%
    02:00 +10°C° 0 mm 2 mps 752 mmHg 92%
    03:00 +9°C° 0 mm 2 mps 752 mmHg 93%
    04:00 +9°C° 0 mm 2 mps 752 mmHg 94%
    05:00 +10°C° 0 mm 2 mps 753 mmHg 90%
    06:00 +12°C° 0 mm 3 mps 753 mmHg 86%
    07:00 +13°C° 0 mm 3 mps 753 mmHg 83%
    08:00 +14°C° 0.1 mm 3 mps 753 mmHg 82%
    09:00 +14°C° 0.1 mm 3 mps 753 mmHg 81%
    10:00 +16°C° 0.1 mm 3 mps 753 mmHg 80%
    11:00 +17°C° 0.6 mm 4 mps 753 mmHg 76%
    12:00 +18°C° 0.6 mm 4 mps 752 mmHg 73%
    13:00 +19°C° 0.6 mm 5 mps 752 mmHg 69%
    14:00 +19°C° 0.8 mm 5 mps 752 mmHg 70%
    15:00 +19°C° 0.8 mm 4 mps 752 mmHg 72%
    16:00 +19°C° 0.8 mm 4 mps 751 mmHg 73%
    17:00 +17°C° 0.5 mm 4 mps 751 mmHg 78%
    18:00 +16°C° 0.5 mm 3 mps 751 mmHg 82%
    19:00 +14°C° 0.5 mm 3 mps 751 mmHg 87%
    20:00 +13°C° 0 mm 3 mps 751 mmHg 88%
    21:00 +13°C° 0 mm 2 mps 751 mmHg 89%
    22:00 +12°C° 0 mm 2 mps 751 mmHg 91%
    23:00 +12°C° 0 mm 2 mps 751 mmHg 91%

    30 May, Saturday

    Time Temperature Precipitation Wind Pressure Humidity
    00:00 +10°C° 0 mm 2 mps 751 mmHg 92%
    01:00 +10°C° 0 mm 2 mps 751 mmHg 92%
    02:00 +9°C° 0 mm 2 mps 751 mmHg 93%
    03:00 +9°C° 0 mm 2 mps 751 mmHg 93%
    04:00 +9°C° 0 mm 2 mps 751 mmHg 94%
    05:00 +10°C° 0 mm 2 mps 751 mmHg 90%
    06:00 +13°C° 0 mm 2 mps 752 mmHg 86%
    07:00 +14°C° 0 mm 2 mps 752 mmHg 82%
    08:00 +16°C° 0 mm 2 mps 752 mmHg 75%
    09:00 +17°C° 0 mm 2 mps 752 mmHg 68%
    10:00 +19°C° 0 mm 3 mps 752 mmHg 61%
    11:00 +20°C° 0.1 mm 3 mps 752 mmHg 59%
    12:00 +20°C° 0.1 mm 3 mps 751 mmHg 58%
    13:00 +21°C° 0.1 mm 4 mps 751 mmHg 56%
    14:00 +20°C° 0.3 mm 4 mps 751 mmHg 58%
    15:00 +20°C° 0.3 mm 4 mps 751 mmHg 60%
    16:00 +20°C° 0.3 mm 4 mps 751 mmHg 62%
    17:00 +18°C° 0.2 mm 3 mps 751 mmHg 68%
    18:00 +17°C° 0.2 mm 3 mps 751 mmHg 75%
    19:00 +15°C° 0.2 mm 2 mps 750 mmHg 81%
    20:00 +15°C° 0 mm 2 mps 751 mmHg 83%
    21:00 +14°C° 0 mm 2 mps 751 mmHg 85%
    22:00 +13°C° 0 mm 1 mps 751 mmHg 87%
    23:00 +13°C° 0 mm 1 mps 751 mmHg 86%

    31 May, Sunday

    Time Temperature Precipitation Wind Pressure Humidity
    00:00 +13°C° 0 mm 1 mps 751 mmHg 85%
    01:00 +13°C° 0 mm 1 mps 751 mmHg 83%
    02:00 +13°C° 0 mm 2 mps 751 mmHg 84%
    03:00 +12°C° 0 mm 2 mps 751 mmHg 85%
    04:00 +12°C° 0 mm 2 mps 751 mmHg 85%
    05:00 +12°C° 0 mm 2 mps 751 mmHg 83%
    06:00 +13°C° 0 mm 2 mps 751 mmHg 81%
    07:00 +12°C° 0 mm 3 mps 751 mmHg 78%
    08:00 +14°C° 0 mm 3 mps 751 mmHg 73%
    09:00 +15°C° 0 mm 4 mps 751 mmHg 67%
    10:00 +17°C° 0 mm 4 mps 751 mmHg 62%
    11:00 +18°C° 0 mm 4 mps 751 mmHg 60%
    12:00 +19°C° 0 mm 4 mps 750 mmHg 59%
    13:00 +19°C° 0 mm 4 mps 750 mmHg 57%
    14:00 +19°C° 0.1 mm 4 mps 750 mmHg 59%
    15:00 +19°C° 0.1 mm 4 mps 750 mmHg 60%
    16:00 +19°C° 0.1 mm 4 mps 749 mmHg 62%
    17:00 +18°C° 0.1 mm 3 mps 749 mmHg 68%
    18:00 +16°C° 0.1 mm 3 mps 749 mmHg 75%
    19:00 +15°C° 0.1 mm 2 mps 749 mmHg 81%
    20:00 +14°C° 0 mm 2 mps 749 mmHg 83%
    21:00 +14°C° 0 mm 2 mps 749 mmHg 86%
    22:00 +13°C° 0 mm 2 mps 749 mmHg 88%
    23:00 +13°C° 0 mm 2 mps 749 mmHg 89%

    1 June, Monday

    Time Temperature Precipitation Wind Pressure Humidity
    00:00 +13°C° 0 mm 2 mps 749 mmHg 90%
    01:00 +13°C° 0 mm 1 mps 749 mmHg 91%
    02:00 +13°C° 0.1 mm 1 mps 748 mmHg 93%
    03:00 +13°C° 0.1 mm 1 mps 748 mmHg 95%
    04:00 +13°C° 0.1 mm 1 mps 748 mmHg 96%
    05:00 +13°C° 0.1 mm 1 mps 748 mmHg 96%
    06:00 +13°C° 0.1 mm 1 mps 748 mmHg 96%
    07:00 +13°C° 0.1 mm 1 mps 748 mmHg 96%
    08:00 +13°C° 0.1 mm 1 mps 748 mmHg 95%
    09:00 +14°C° 0.1 mm 1 mps 748 mmHg 94%
    10:00 +14°C° 0.1 mm 1 mps 748 mmHg 93%
    11:00 +15°C° 0.1 mm 1 mps 748 mmHg 90%
    12:00 +15°C° 0.1 mm 1 mps 748 mmHg 87%
    13:00 +16°C° 0.1 mm 1 mps 748 mmHg 84%
    14:00 +18°C° 0.1 mm 1 mps 748 mmHg 80%
    15:00 +18°C° 0.1 mm 1 mps 748 mmHg 77%
    16:00 +19°C° 0.1 mm 1 mps 748 mmHg 73%
    17:00 +18°C° 0.3 mm 1 mps 748 mmHg 78%
    18:00 +16°C° 0.3 mm 1 mps 748 mmHg 83%
    19:00 +15°C° 0.3 mm 1 mps 748 mmHg 87%
    20:00 +14°C° 0.1 mm 1 mps 748 mmHg 89%
    21:00 +14°C° 0.1 mm 1 mps 748 mmHg 91%
    22:00 +13°C° 0.1 mm 1 mps 749 mmHg 92%
    23:00 +12°C° 0 mm 1 mps 749 mmHg 93%
    Show more